NOAA 16 DEB, 41425

Orbit data source: Space-Track

NOAA 16 DEB, 41425 is space debris in SSO originally from a launch on Thu, 21 Sep 2000 UTC launched from the Air Force Western Test Range (AFWTR). Debris objects in space refer to the collection of defunct objects orbiting the Earth. Examples of debris include non-operational satellites, rocket bodies, and fragments generated from explosions, collisions, or faulty payload assembly.

Loading next visibility...
Identifier
41425, 2000-055LE
Orbit
SSO
Country
Flag of USUS
Related business
Manufacturer
Unknown
Mission
Spacecraft
Bus & Motor
Unknown
Mass
Unknown
Launch date (UTC)
2000-09-21 (26 years ago)
Launch vehicle
Unknown
Launch site
Air Force Western Test Range (AFWTR)
Object type
Payload
Rocket body
Debris
Shape & HBR
Unknown shape, 0.1 m
Radar Cross Section
Medium (>0.1 m² and <1 m²)

Expand to show TLE details & history
Last TLE update: 4 days ago

TLE from 4 days ago
0 NOAA 16 DEB
1 41425U 00055LE  26203.44593200  .00008209  00000-0  16350-2 0  9992
2 41425  98.9613  99.3448 0032433 278.4407  81.3116 14.61986008546725
Epoch: 2026-07-22T10:42Z
TLE epoch observation values (Epoch: 2026-07-22T10:42:08.524Z)
Latitude
-0.00004°
Longitude
-1.39187°
Altitude
686.343 km
Speed
7.515 km/s
True Right ascension
06h 37m 22s
True Declination
0° 00' 00"
Sunlit
Object was in daylight at epoch
Visualization orbit readout
Latitude
Unknown
Longitude
Unknown
Altitude
Unknown
Speed
Unknown
Apparent Right ascension
Unknown
Apparent Declination
Unknown
Sunlit
N/A
Visualization observer readout
Local Sidereal Time
18:54:06
Azimuth
Unknown
Elevation
Unknown
Doppler factor
Unknown
Orbital elements
Apogee altitude
706.788 km
Perigee altitude
660.979 km
Semi-major axis
7,062.021 km
Eccentricity
0.00324
Inclination
98.9613°
RAAN
99.3448°
Arg. of periapsis
278.4407°
True anomaly
81.67921°
Mean anomaly
81.3116°
Eccentric anomaly
81.49538°
Mean motion
3.65721 °/min
Orbital period
98.44 mins
BSTAR
0.001635
Loading maneuver chart data...
Computing Atmospheric mass density...

Documentation

Showing up to 5 results
|